Terug naar catalogus

STARLINK-11502

ActiefCommunicatieVLEO
NORAD 62474·PAYLOAD·🇺🇸 United States

Gelanceerd Dec 31, 2024 vanaf Cape Canaveral Space Force Station

Loading…

Volgende Passages (komende 24 uur)

TLE

VersSource: CelesTrak SupGP

Epoch: Sep 14, 2026, 21:20 UTC

1 62474C 24254N   26257.88937500 -.00004743  00000+0 -36850-4 0  2574
2 62474  43.0004 162.4841 0001149 265.6179 255.9889 15.70833861    12

Volg STARLINK-11502 in realtime met AllMySat

Download on the App Store